User: anonymous   Login
Location: Lower Kingswood
(51.2667°N, 0.2167°W)
Time: 16:39:55
(UTC+00:00)
Language:

SJ 16-02 - Orbit

View from above orbital plane
View from above orbital plane
View from above satellite
View from above satellite

Ground track
Ground track

The orbit data is extracted from the following two-line orbital elements,

1 41634U 16043A   24062.48980129  .00001436  00000-0  15668-3 0  9990
2 41634  75.0000  57.5604 0009690 273.4641  86.5437 14.88697821416424
Epoch (UTC): 02 March 2024 11:45:18
Eccentricity: 0.0009690
inclination: 75.0000°
perigee height: 595 km
apogee height: 609 km
right ascension of ascending node: 57.5604°
argument of perigee: 273.4641°
revolutions per day: 14.88697821
mean anomaly at epoch: 86.5437°
orbit number at epoch: 41642

The dashed part of the orbit path shows where the satellite is in the earth's shadow,  

DLR